When you browse on this site, cookies collect data to enhance your experience and personalize the content and advertising you see.
Visit our Privacy Policy to learn more. By continuing to use the site, you agree to this use of cookies and data.
  • In Hungary
  • List of Countries
  • For 7 days
  • Water Temperature
  • Satellite Maps
  • Weather Map
  • News
  • Weather Widgets
  • user-avatar
    Login

    Hourly Weather Cortina d'Ampezzo

    Today, 19 March, Tuesday

    Time Temperature Precipitation Wind Pressure Humidity
    00:00 +8°C° 0 mm 4 mps 762 mmHg 70%
    01:00 +9°C° 0 mm 3 mps 762 mmHg 70%
    02:00 +9°C° 0.1 mm 3 mps 762 mmHg 69%
    03:00 +8°C° 0.1 mm 4 mps 762 mmHg 68%
    04:00 +8°C° 0.1 mm 4 mps 762 mmHg 67%
    05:00 +7°C° 0.2 mm 4 mps 763 mmHg 68%
    06:00 +7°C° 0.2 mm 4 mps 763 mmHg 70%
    07:00 +8°C° 0 mm 2 mps 764 mmHg 71%
    08:00 +9°C° 0 mm 3 mps 764 mmHg 66%
    09:00 +10°C° 0 mm 4 mps 765 mmHg 61%
    10:00 +10°C° 0 mm 5 mps 765 mmHg 56%
    11:00 +10°C° 0 mm 6 mps 765 mmHg 54%
    12:00 +11°C° 0 mm 6 mps 765 mmHg 51%
    13:00 +13°C° 0 mm 5 mps 765 mmHg 47%
    14:00 +13°C° 0 mm 5 mps 765 mmHg 47%
    15:00 +13°C° 0 mm 5 mps 765 mmHg 47%
    16:00 +12°C° 0 mm 5 mps 765 mmHg 47%
    17:00 +10°C° 0 mm 5 mps 766 mmHg 50%
    18:00 +10°C° 0 mm 4 mps 766 mmHg 54%
    19:00 +7°C° 0 mm 4 mps 766 mmHg 57%
    20:00 +8°C° 0 mm 3 mps 767 mmHg 58%
    21:00 +7°C° 0 mm 3 mps 767 mmHg 60%
    22:00 +7°C° 0 mm 3 mps 768 mmHg 62%
    23:00 +7°C° 0 mm 3 mps 768 mmHg 63%

    Tomorrow, 20 March, Wednesday

    Time Temperature Precipitation Wind Pressure Humidity
    00:00 +7°C° 0 mm 3 mps 768 mmHg 64%
    01:00 +7°C° 0 mm 3 mps 768 mmHg 65%
    02:00 +6°C° 0 mm 4 mps 768 mmHg 65%
    03:00 +6°C° 0 mm 4 mps 768 mmHg 64%
    04:00 +6°C° 0 mm 4 mps 768 mmHg 63%
    05:00 +6°C° 0 mm 4 mps 769 mmHg 63%
    06:00 +6°C° 0 mm 4 mps 769 mmHg 62%
    07:00 +6°C° 0 mm 5 mps 769 mmHg 62%
    08:00 +7°C° 0 mm 5 mps 770 mmHg 57%
    09:00 +9°C° 0 mm 6 mps 770 mmHg 51%
    10:00 +11°C° 0 mm 7 mps 770 mmHg 46%
    11:00 +12°C° 0 mm 7 mps 771 mmHg 44%
    12:00 +12°C° 0 mm 7 mps 771 mmHg 41%
    13:00 +14°C° 0 mm 6 mps 771 mmHg 39%
    14:00 +14°C° 0 mm 6 mps 770 mmHg 39%
    15:00 +14°C° 0 mm 6 mps 770 mmHg 39%
    16:00 +14°C° 0 mm 6 mps 770 mmHg 38%
    17:00 +12°C° 0 mm 5 mps 770 mmHg 42%
    18:00 +9°C° 0 mm 5 mps 770 mmHg 45%
    19:00 +8°C° 0 mm 4 mps 770 mmHg 48%
    20:00 +8°C° 0 mm 4 mps 771 mmHg 50%
    21:00 +7°C° 0 mm 4 mps 771 mmHg 52%
    22:00 +7°C° 0 mm 4 mps 771 mmHg 53%
    23:00 +7°C° 0 mm 4 mps 771 mmHg 56%

    Day after tomorrow, 21 March, Thursday

    Time Temperature Precipitation Wind Pressure Humidity
    00:00 +7°C° 0 mm 4 mps 772 mmHg 59%
    01:00 +7°C° 0 mm 4 mps 772 mmHg 62%
    02:00 +7°C° 0 mm 4 mps 771 mmHg 62%
    03:00 +6°C° 0 mm 4 mps 771 mmHg 62%
    04:00 +6°C° 0 mm 4 mps 771 mmHg 62%
    05:00 +6°C° 0 mm 4 mps 771 mmHg 61%
    06:00 +6°C° 0 mm 4 mps 772 mmHg 60%
    07:00 +6°C° 0 mm 4 mps 772 mmHg 59%
    08:00 +8°C° 0 mm 4 mps 772 mmHg 54%
    09:00 +10°C° 0 mm 5 mps 772 mmHg 49%
    10:00 +13°C° 0 mm 5 mps 772 mmHg 43%
    11:00 +14°C° 0 mm 5 mps 772 mmHg 42%
    12:00 +15°C° 0 mm 5 mps 772 mmHg 40%
    13:00 +16°C° 0 mm 5 mps 772 mmHg 39%
    14:00 +16°C° 0 mm 5 mps 771 mmHg 39%
    15:00 +17°C° 0 mm 4 mps 771 mmHg 39%
    16:00 +17°C° 0 mm 4 mps 770 mmHg 39%
    17:00 +14°C° 0 mm 4 mps 770 mmHg 42%
    18:00 +13°C° 0 mm 3 mps 771 mmHg 45%
    19:00 +11°C° 0 mm 3 mps 771 mmHg 48%
    20:00 +10°C° 0 mm 3 mps 771 mmHg 49%
    21:00 +10°C° 0 mm 3 mps 771 mmHg 50%
    22:00 +9°C° 0 mm 3 mps 772 mmHg 51%
    23:00 +9°C° 0 mm 3 mps 772 mmHg 52%

    22 March, Friday

    Time Temperature Precipitation Wind Pressure Humidity
    00:00 +9°C° 0 mm 3 mps 772 mmHg 53%
    01:00 +9°C° 0 mm 3 mps 772 mmHg 54%
    02:00 +8°C° 0 mm 3 mps 772 mmHg 55%
    03:00 +8°C° 0 mm 2 mps 771 mmHg 57%
    04:00 +8°C° 0 mm 2 mps 771 mmHg 58%
    05:00 +8°C° 0 mm 2 mps 771 mmHg 59%
    06:00 +8°C° 0 mm 2 mps 771 mmHg 60%
    07:00 +8°C° 0 mm 2 mps 771 mmHg 61%
    08:00 +10°C° 0 mm 2 mps 771 mmHg 55%
    09:00 +13°C° 0 mm 3 mps 771 mmHg 49%
    10:00 +16°C° 0 mm 3 mps 771 mmHg 44%
    11:00 +18°C° 0 mm 3 mps 771 mmHg 41%
    12:00 +19°C° 0 mm 2 mps 771 mmHg 39%
    13:00 +21°C° 0 mm 2 mps 770 mmHg 36%
    14:00 +21°C° 0 mm 2 mps 770 mmHg 37%
    15:00 +21°C° 0 mm 2 mps 769 mmHg 38%
    16:00 +21°C° 0 mm 2 mps 769 mmHg 38%
    17:00 +18°C° 0 mm 2 mps 769 mmHg 43%
    18:00 +16°C° 0 mm 2 mps 769 mmHg 49%
    19:00 +14°C° 0 mm 2 mps 769 mmHg 54%
    20:00 +13°C° 0 mm 2 mps 769 mmHg 55%
    21:00 +13°C° 0 mm 2 mps 769 mmHg 57%
    22:00 +12°C° 0 mm 2 mps 770 mmHg 59%
    23:00 +10°C° 0 mm 2 mps 770 mmHg 59%

    23 March, Saturday

    Time Temperature Precipitation Wind Pressure Humidity
    00:00 +10°C° 0 mm 2 mps 770 mmHg 59%
    01:00 +10°C° 0 mm 2 mps 770 mmHg 59%
    02:00 +9°C° 0 mm 2 mps 769 mmHg 59%
    03:00 +9°C° 0 mm 2 mps 769 mmHg 58%
    04:00 +9°C° 0 mm 2 mps 769 mmHg 58%
    05:00 +8°C° 0 mm 2 mps 769 mmHg 58%
    06:00 +8°C° 0 mm 2 mps 769 mmHg 59%
    07:00 +8°C° 0 mm 2 mps 769 mmHg 59%
    08:00 +12°C° 0 mm 2 mps 769 mmHg 53%
    09:00 +15°C° 0 mm 2 mps 769 mmHg 47%
    10:00 +18°C° 0 mm 1 mps 769 mmHg 42%
    11:00 +20°C° 0 mm 1 mps 769 mmHg 39%
    12:00 +21°C° 0 mm 1 mps 768 mmHg 37%
    13:00 +22°C° 0 mm 1 mps 768 mmHg 34%
    14:00 +21°C° 0 mm 2 mps 768 mmHg 35%
    15:00 +21°C° 0 mm 2 mps 767 mmHg 36%
    16:00 +21°C° 0 mm 2 mps 767 mmHg 37%
    17:00 +19°C° 0 mm 2 mps 767 mmHg 42%
    18:00 +17°C° 0 mm 2 mps 767 mmHg 47%
    19:00 +15°C° 0 mm 2 mps 767 mmHg 53%
    20:00 +14°C° 0 mm 2 mps 767 mmHg 54%
    21:00 +13°C° 0 mm 1 mps 768 mmHg 56%
    22:00 +13°C° 0 mm 1 mps 768 mmHg 58%
    23:00 +12°C° 0 mm 1 mps 768 mmHg 59%

    24 March, Sunday

    Time Temperature Precipitation Wind Pressure Humidity
    00:00 +12°C° 0 mm 1 mps 768 mmHg 61%
    01:00 +12°C° 0 mm 1 mps 768 mmHg 62%
    02:00 +12°C° 0 mm 1 mps 767 mmHg 63%
    03:00 +10°C° 0 mm 2 mps 767 mmHg 64%
    04:00 +10°C° 0 mm 2 mps 767 mmHg 66%
    05:00 +10°C° 0 mm 2 mps 767 mmHg 67%
    06:00 +10°C° 0 mm 2 mps 767 mmHg 67%
    07:00 +11°C° 0 mm 1 mps 767 mmHg 68%
    08:00 +13°C° 0 mm 1 mps 767 mmHg 62%
    09:00 +16°C° 0 mm 1 mps 767 mmHg 55%
    10:00 +19°C° 0 mm 1 mps 767 mmHg 48%
    11:00 +20°C° 0 mm 1 mps 767 mmHg 46%
    12:00 +20°C° 0 mm 2 mps 767 mmHg 44%
    13:00 +20°C° 0 mm 2 mps 766 mmHg 41%
    14:00 +20°C° 0 mm 2 mps 766 mmHg 43%
    15:00 +20°C° 0 mm 2 mps 765 mmHg 44%
    16:00 +19°C° 0 mm 3 mps 765 mmHg 46%
    17:00 +17°C° 0 mm 2 mps 765 mmHg 52%
    18:00 +16°C° 0 mm 2 mps 765 mmHg 58%
    19:00 +14°C° 0 mm 1 mps 765 mmHg 63%
    20:00 +13°C° 0 mm 1 mps 765 mmHg 64%
    21:00 +12°C° 0 mm 1 mps 765 mmHg 66%
    22:00 +12°C° 0 mm 1 mps 765 mmHg 67%
    23:00 +12°C° 0 mm 1 mps 765 mmHg 68%
    Show more